Location: Cheching
(60.0667°N, 164.2167°W)
Time: 23:22:42
(UTC+00:00)

CUBEBUG 2 - Visible Passes

Search period start: 23 January 2021 00:00
Search period end: 02 February 2021 00:00
Orbit: 585 x 697 km, 97.7° (Epoch: 23 January)

Date Brightness Start Highest point End Pass type
(mag) Time Alt. Az. Time Alt. Az. Time Alt. Az.
23 Jan ? 14:52:03 10° NNE 14:54:33 29° NE 14:54:33 29° NE visible
23 Jan ? 16:28:47 10° N 16:32:10 36° NNW 16:32:10 36° NNW visible
23 Jan ? 18:06:42 10° NNW 18:08:37 13° NW 18:09:47 12° NW visible
24 Jan ? 03:38:24 10° WSW 03:40:56 15° W 03:43:30 10° NW visible
24 Jan ? 13:40:25 10° NE 13:41:14 12° ENE 13:41:14 12° ENE visible
24 Jan ? 15:15:53 10° NNE 15:18:51 39° NNE 15:18:51 39° NNE visible
24 Jan ? 16:52:51 10° N 16:56:28 29° NW 16:56:28 29° NW visible
25 Jan ? 14:03:43 10° NE 14:05:33 18° ENE 14:05:33 18° ENE visible
25 Jan ? 15:39:48 10° NNE 15:43:09 48° N 15:43:09 48° N visible
25 Jan ? 17:17:00 10° N 17:20:30 22° NW 17:20:47 22° NW visible
26 Jan ? 14:27:19 10° NNE 14:29:51 25° ENE 14:29:51 25° ENE visible
26 Jan ? 16:03:46 10° N 16:07:28 49° NNW 16:07:28 49° NNW visible
26 Jan ? 17:41:14 10° N 17:44:08 17° NW 17:45:06 16° WNW visible
27 Jan ? 14:51:04 10° NNE 14:54:10 35° NE 14:54:10 35° NE visible
27 Jan ? 16:27:48 10° N 16:31:47 40° NW 16:31:47 40° NW visible
27 Jan ? 18:05:39 10° NNW 18:07:42 13° NW 18:09:25 11° WNW visible
28 Jan ? 13:39:26 10° NE 13:40:52 14° ENE 13:40:52 14° ENE visible
28 Jan ? 15:14:55 10° NNE 15:18:28 49° NE 15:18:28 49° NE visible
28 Jan ? 16:51:52 10° N 16:55:54 29° NW 16:56:06 29° WNW visible
29 Jan ? 04:03:33 10° W 04:04:16 10° WNW 04:04:59 10° WNW visible
29 Jan ? 14:02:45 10° NE 14:05:11 20° ENE 14:05:11 20° ENE visible
29 Jan ? 15:38:50 10° NNE 15:42:47 63° N 15:42:47 63° N visible
29 Jan ? 17:16:00 10° N 17:19:35 22° NW 17:20:25 21° WNW visible
30 Jan ? 14:26:21 10° NNE 14:29:29 28° ENE 14:29:29 28° ENE visible
30 Jan ? 16:02:48 10° NNE 16:07:07 57° NW 16:07:07 57° NW visible
30 Jan ? 17:40:14 10° N 17:43:12 17° NW 17:44:44 15° WNW visible
31 Jan ? 14:50:06 10° NNE 14:53:49 41° ENE 14:53:49 41° ENE visible
31 Jan ? 16:26:49 10° N 16:31:14 41° WNW 16:31:25 41° WNW visible
31 Jan ? 18:04:37 10° NNW 18:06:46 13° NW 18:08:55 10° WNW visible
01 Feb ? 13:38:27 10° NE 13:40:29 15° ENE 13:40:29 15° ENE visible
01 Feb ? 15:13:57 10° NNE 15:18:07 61° ENE 15:18:07 61° ENE visible
01 Feb ? 16:50:54 10° N 16:54:59 30° NW 16:55:44 28° WNW visible
